Weather History for Winner, SD

Change the Weather History Date:

Thursday, September 5, 2013

  Actual Average Record
Temperature  
Mean Temperature 81 °F 69 °F  
Max Temperature 97 °F 82 °F 97 °F (2013)
Min Temperature 65 °F 56 °F 49 °F (2011)
Degree Days  
Heating Degree Days 0 2  
Month to date heating degree days 0 9  
Since 1 July heating degree days 7 23  
Cooling Degree Days 16 6  
Month to date cooling degree days 63 32  
Year to date cooling degree days 854 838  
Growing Degree Days 30 (Base 50)    
Moisture  
Dew Point 62 °F    
Average Humidity 60    
Maximum Humidity 87    
Minimum Humidity 33    
Precipitation  
Precipitation 0.00 in 0.06 in 0.13 in (2008)
Month to date precipitation 0.00 0.34  
Year to date precipitation 15.99 17.34  
Sea Level Pressure  
Sea Level Pressure 29.98 in    
Wind  
Wind Speed 12 mph (SE)    
Max Wind Speed 23 mph    
Max Gust Speed 31 mph    
Visibility 10 miles    
Events      
T = Trace of Precipitation, MM = Missing Value Source: NWS Daily Summary

Daily Weather History Graph

Daily Weather History Graph

Search for Another Location

Airport:

Trip Planner

Search our weather history database for the weather conditions in past years. The results will help you decide how hot, cold, wet, or windy it might be!

Date:

Astronomy

Sep. 05, 2013 Rise Set
Actual Time 7:08 AM CDT 8:06 PM CDT
Civil Twilight 6:38 AM CDT 8:36 PM CDT
Nautical Twilight 6:04 AM CDT 9:10 PM CDT
Astronomical Twilight 5:27 AM CDT 9:46 PM CDT
Moon 7:23 AM CDT (9/5) 7:56 PM CDT (9/5)
Length of Visible Light 13h 57m
Length of Day
12h 58m
New Moon, 0% of the Moon is Illuminated
Sep 5
New Moon
Sep 12
First Quarter
Sep 19
Full
Sep 26
Last Quarter
Oct 4
New

Hourly Weather History & Observations

Time (CDT) Temp. Heat Index Dew Point Humidity Pressure Visibility Wind Dir Wind Speed Gust Speed Precip Events Conditions
12:53 AM 73.9 °F - 63.0 °F 68% 30.01 in 10.0 mi SE 9.2 mph - N/A   Clear
1:53 AM 75.0 °F - 63.0 °F 66% 30.01 in 10.0 mi SSE 5.8 mph - N/A   Clear
2:53 AM 73.0 °F - 62.1 °F 68% 29.99 in 10.0 mi SE 6.9 mph - N/A   Clear
3:53 AM 72.0 °F - 60.1 °F 66% 29.98 in 10.0 mi SSE 6.9 mph - N/A   Clear
4:53 AM 70.0 °F - 60.1 °F 71% 29.98 in 10.0 mi SSE 6.9 mph - N/A   Clear
5:53 AM 68.0 °F - 60.1 °F 76% 29.99 in 10.0 mi ESE 4.6 mph - N/A   Clear
6:53 AM 64.9 °F - 60.1 °F 84% 30.00 in 10.0 mi East 6.9 mph - N/A   Clear
7:53 AM 66.9 °F - 60.1 °F 79% 30.05 in 10.0 mi Calm Calm - N/A   Clear
8:53 AM 71.1 °F - 60.1 °F 68% 30.05 in 10.0 mi East 6.9 mph - N/A   Clear
9:53 AM 75.0 °F - 60.1 °F 60% 30.04 in 10.0 mi SE 9.2 mph - N/A   Clear
10:53 AM 81.0 °F 81.7 °F 61.0 °F 50% 30.02 in 10.0 mi ESE 13.8 mph - N/A   Clear
11:53 AM 82.9 °F 83.3 °F 61.0 °F 47% 30.02 in 10.0 mi ESE 10.4 mph - N/A   Clear
12:53 PM 86.0 °F 86.8 °F 63.0 °F 46% 30.01 in 10.0 mi SE 15.0 mph 20.7 mph N/A   Clear
1:53 PM 87.1 °F 87.5 °F 62.1 °F 43% 29.99 in 10.0 mi SE 12.7 mph - N/A   Clear
2:53 PM 91.9 °F 92.5 °F 62.1 °F 37% 29.96 in 10.0 mi SSE 9.2 mph - N/A   Clear
3:53 PM 95.0 °F 95.6 °F 62.1 °F 33% 29.94 in 10.0 mi SSE 11.5 mph 18.4 mph N/A   Clear
4:53 PM 96.1 °F 96.9 °F 62.1 °F 32% 29.94 in 10.0 mi SE 16.1 mph 24.2 mph N/A   Clear
5:53 PM 93.9 °F 94.8 °F 62.1 °F 35% 29.93 in 10.0 mi SSE 16.1 mph - N/A   Clear
6:53 PM 91.9 °F 91.8 °F 61.0 °F 35% 29.93 in 10.0 mi SSE 13.8 mph - N/A   Clear
7:53 PM 88.0 °F 87.9 °F 61.0 °F 40% 29.92 in 10.0 mi SSE 11.5 mph - N/A   Clear
8:53 PM 82.9 °F 85.0 °F 66.0 °F 56% 29.93 in 10.0 mi SSE 13.8 mph 25.3 mph N/A   Clear
9:53 PM 82.0 °F 84.1 °F 66.0 °F 58% 29.93 in 10.0 mi SSE 17.3 mph 24.2 mph N/A   Clear
10:53 PM 80.1 °F 82.1 °F 66.0 °F 62% 29.92 in 10.0 mi South 20.7 mph 27.6 mph N/A   Clear
11:53 PM 79.0 °F - 66.0 °F 64% 29.92 in 10.0 mi South 17.3 mph 21.9 mph N/A   Clear